Regional Weather Roundup
Issued by NWS

Home | Current Version | Previous Version | Graphics & Text | Print | Product List | Glossary On
Versions: 1 2 3 4 5 6 7 8 9 10 11 12 13 14 15 16 17 18 19 20 21 22 23 24 25 26 27 28 29 30 31 32 33 34 35 36 37 38 39 40 41 42 43 44 45 46 47 48 49 50
639
ASUS45 KSLC 062110
RWRUT

UTAH REGIONAL WEATHER ROUNDUP
NATIONAL WEATHER SERVICE SALT LAKE CITY UT
200 PM MST SAT FEB 06 2016

UTZ001>011-023>025-062200-

NORTHERN UTAH

CITY           SKY/WX    TMP DP  RH WIND       PRES   REMARKS
BRIGHAM CITY   SUNNY     30  23  75 CALM      30.50F
HILL AFB       SUNNY     36  15  41 CALM      30.46F
LOGAN          SUNNY     30  24  78 N3        30.47F
OGDEN          SUNNY     32  25  75 NW3       30.46F
PROVO AIRPORT  SUNNY     23  18  80 CALM      30.51F
SALT LAKE CITY PTSUNNY   41  21  44 W3        30.47F
VERNAL         SUNNY     17   9  70 E6        30.48F WCI   9
WENDOVER       MOSUNNY   36  25  64 SE5       30.49F WCI  32
HEBER CITY     SUNNY     30  16  55 CALM      30.45F
WEST JORDAN    SUNNY     34  21  60 E8        30.47F WCI  27

$$

UTZ012>022-026-027-062200-

SOUTHERN/CENTRAL UTAH

CITY           SKY/WX    TMP DP  RH WIND       PRES   REMARKS
BLANDING       SUNNY     32  20  60 CALM      30.50F
BRYCE CANYON   SUNNY     33  16  49 NE5       30.43F WCI  29
CEDAR CITY     SUNNY     33  20  58 CALM      30.42F
DELTA          SUNNY     17  16  95 CALM      30.49F
HANKSVILLE     CLOUDY    23  18  80 W3        30.60F
MILFORD        SUNNY     17  12  80 S6        30.47F WCI   9
MOAB/CYNLANDS  SUNNY     20  16  84 NW7       30.55F WCI  11
PRICE          SUNNY     24  14  65 SE5       30.46F WCI  18
ST GEORGE      CLEAR     48  23  37 CALM      30.43F
KANAB          SUNNY     50  27  40 E9        30.44F

$$

REGIONAL REPORTS     COLORADO/ARIZONA

CITY           SKY/WX    TMP DP  RH WIND       PRES   REMARKS
CRAIG, CO      CLOUDY    20  12  71 S3        30.40F
GRAND JUNCTION SUNNY     22  15  75 CALM      30.52F
RIFLE          MOSUNNY   26   9  48 N3        30.49F
MONTROSE       SUNNY     27  12  53 NE5       30.50F WCI  22
CORTEZ         SUNNY     33  19  56 SW5       30.42F WCI  29
PAGE, AZ       SUNNY     39  23  52 NE6       30.47F WCI  35
GRAND CANYON   SUNNY     51  10  19 VRB7      30.39F
KINGMAN        SUNNY     57 N/A N/A N12       30.35F
FLAGSTAFF      SUNNY     42  15  33 NE6       30.40F

$$

REGIONAL REPORTS    NEVADA/IDAHO/WYOMING

CITY           SKY/WX    TMP DP  RH WIND       PRES   REMARKS
LAS VEGAS, NV  MOSUNNY   57  23  26 CALM      30.35F
ELY            SUNNY     33  20  58 S9        30.43F WCI  25
ELKO           SUNNY     27  16  63 SW3       30.49F
POCATELLO, ID  CLOUDY    39  24  55 S15G25    30.38F WCI  31
BURLEY         LGT RAIN  44  30  57 SW13      30.39F
EVANSTON, WY   CLOUDY    31  18  58 SW26      30.35F WCI  17
ROCK SPRINGS   CLOUDY    30  17  58 SW16G23   30.28F WCI  19
KEMMERER       CLOUDY    30  19  64 SW7       30.34F WCI  23

$$




USA.gov is the U.S. government's official web portal to all federal, state and local government web resources and services.